[Date Prev][Date Next][Thread Prev][Thread Next] - [Date Index][Thread Index][Author Index]
2 Line ISS Keps 6-7
- Subject: [sarex] 2 Line ISS Keps 6-7
- From: "Dave Larsen PhD" <doc@xxxxxxxxxxx>
- Date: Tue, 6 Jun 2006 20:35:55 -0700
ISS
1 25544U 98067A 06158.01685185 .00009152 00000-0 61727-4 0 663
2 25544 051.6328 239.8460 0009122 301.9377 050.7445 15.75951299431559
----
Via the sarex mailing list at AMSAT.ORG courtesy of AMSAT-NA.
To unsubscribe, send "unsubscribe sarex" to Majordomo@amsat.org
AMSAT Home